Location: Mococo
(38.0255°N, 122.1161°W)
Time: 06:00:26
(UTC+00:00)

Cosmos 1934 Rocket - Pass Details

Date: 13 February 2026
Orbit: 938 x 997 km, 83.0° (Epoch: 5 March)

Event Time Altitude Azimuth Distance (km) Brightness Sun altitude
Rises 12:22:33 0° 173° (S) 3,591 7.0 -31.7°
Reaches altitude 10° 12:25:03 10° 169° (S) 2,656 6.3 -31.2°
Maximum altitude 12:30:58 58° 92° (E) 1,108 4.4 -30.0°
Drops below altitude 10° 12:37:00 10° 15° (NNE) 2,708 6.5 -28.8°
Sets 12:39:34 0° 12° (NNE) 3,668 7.2 -28.3°
